Wind_Speed
5 4 4 4 4 4 4 4 4 4 4 5 5 5 5 5 5 5 5 5 5 5 5 6 6 6 6 6 6 6 6 6 6 6 6 6 6 6 6 6 7 6 7 7 7 7 6 6 5
5 5 4 4 5 5 5 5 4 4 5 5 6 6 6 5 5 5 5 6 6 6 6 6 6 6 6 7 7 7 7 7 7 7 7 7 6 6 6 6 7 6 6 6 6 7 6 6 6
5 5 5 5 5 5 5 5 5 5 6 6 6 6 6 5 5 5 5 6 6 6 6 5 6 6 7 7 8 8 8 7 7 7 7 7 7 7 6 7 7 7 7 6 6 6 6 6 6
5 5 5 4 5 5 5 5 5 6 5 5 5 6 5 5 5 6 6 6 6 6 6 6 6 6 6 7 7 8 8 7 7 7 7 7 7 7 7 7 7 7 7 7 7 7 6 6 6
5 5 5 5 5 5 5 5 5 5 6 5 5 6 5 5 5 6 7 7 7 6 7 6 7 6 7 7 7 7 7 7 7 7 7 7 7 7 7 8 8 7 8 8 8 7 7 7 6
6 6 5 5 5 5 5 5 5 5 6 6 6 6 5 5 6 6 7 7 8 7 7 6 7 6 6 6 6 7 7 6 6 6 6 6 6 7 7 8 8 7 7 7 8 8 8 8 7
5 6 6 6 5 5 5 6 6 6 6 6 6 6 6 6 6 6 7 8 8 7 7 7 7 7 7 6 6 6 6 6 6 6 6 5 5 6 6 6 6 7 7 7 7 8 8 8 8
5 5 6 6 6 6 6 6 6 6 6 6 6 6 6 6 6 7 7 8 7 7 6 7 7 7 7 7 6 6 6 6 6 7 7 6 6 6 6 6 6 7 7 7 8 8 8 8 8
5 5 6 7 7 6 6 6 6 6 6 6 6 6 6 6 7 7 7 7 6 6 6 6 7 6 6 6 5 6 6 6 6 7 6 6 6 6 6 6 7 7 7 8 8 8 7 8 8
5 5 6 7 7 7 6 6 6 6 7 7 7 7 6 6 7 7 6 7 6 6 6 6 5 5 5 5 5 5 6 6 6 6 6 6 6 6 6 7 7 7 7 8 8 8 8 8 7
5 5 6 7 7 7 6 6 7 7 7 7 7 7 7 7 7 7 6 6 6 6 6 6 5 5 5 5 5 5 5 5 6 6 6 6 6 7 7 7 7 7 7 7 8 8 7 8 8
4 5 6 6 7 7 6 7 7 7 7 8 7 7 6 7 6 6 6 6 6 6 5 5 5 5 5 5 5 4 5 5 6 6 6 7 7 7 8 8 7 7 7 7 8 8 8 8 8
4 5 6 6 7 6 7 7 7 7 8 8 7 7 6 7 6 6 6 6 6 6 5 6 6 5 5 5 5 4 4 5 5 6 6 6 7 7 7 7 7 7 6 7 7 7 7 8 8
5 5 5 6 6 6 7 7 7 8 8 8 8 7 7 7 6 6 6 6 6 6 5 6 6 6 5 5 5 5 5 5 5 6 6 7 7 7 7 7 7 7 7 7 7 7 8 8 8
4 5 5 6 6 7 7 7 8 8 8 8 8 7 7 7 6 6 6 7 6 6 6 6 6 6 5 5 5 5 6 5 6 6 6 6 6 6 6 6 7 7 7 7 7 7 8 8 8
4 4 5 6 6 7 7 7 8 8 8 8 8 7 7 7 6 6 6 7 7 7 6 6 6 6 6 5 5 5 5 5 6 6 6 6 6 5 6 6 6 6 6 6 7 7 7 8 8
4 5 6 6 7 7 7 8 8 8 9 9 8 8 7 7 7 7 7 7 7 6 6 6 6 6 6 5 4 5 5 5 5 4 4 4 4 5 5 5 5 6 6 6 6 7 7 8 8
4 5 6 7 7 7 8 8 8 9 9 9 8 8 7 7 7 7 7 7 6 6 6 6 6 6 6 5 5 5 5 5 5 4 4 4 4 5 4 4 5 5 4 5 6 6 7 8 8
4 5 5 6 7 7 7 8 8 8 8 8 8 7 7 7 7 8 8 7 6 6 6 6 6 6 6 5 5 5 5 5 5 5 5 5 5 5 5 5 6 5 5 5 6 6 7 7 8
5 5 5 6 7 7 8 8 8 8 8 8 8 8 7 7 7 8 8 7 7 6 6 6 6 6 6 6 6 6 6 6 5 5 5 5 5 5 5 6 6 6 6 7 7 7 8 7 7
6 6 6 7 7 7 8 9 9 8 8 9 9 9 8 8 8 8 8 8 7 7 7 7 7 7 7 7 7 7 7 6 6 6 6 5 6 6 6 6 6 6 6 7 7 7 8 7 7
7 7 7 7 7 8 9 9 10 10 9 9 9 9 9 9 9 9 8 8 8 7 7 7 7 7 7 7 7 7 7 7 7 7 6 6 6 6 6 6 6 6 6 7 7 7 7 7 7
8 8 7 7 7 8 9 10 11 11 11 10 10 10 10 10 10 9 9 9 8 8 8 8 8 8 8 7 7 7 7 7 7 8 7 7 7 7 7 7 7 7 7 7 7 7 7 7 7
8 8 7 7 8 9 10 11 11 11 12 12 12 11 10 10 10 9 9 9 9 9 9 8 8 8 8 8 7 8 8 8 8 8 8 8 8 8 8 8 8 8 8 8 8 8 8 8 8
9 9 8 7 8 9 10 12 12 13 13 14 13 13 11 10 10 10 10 10 10 10 9 9 9 8 8 8 8 8 9 9 9 8 8 8 8 9 9 9 9 9 9 9 10 10 9 9 9
10 9 9 8 8 10 11 13 14 14 15 15 15 14 13 12 11 11 11 11 10 10 10 10 9 9 9 9 9 9 10 10 10 9 9 9 9 9 9 10 10 10 11 11 11 11 10 10 10
11 10 11 11 9 11 12 13 15 15 15 16 16 15 14 14 13 12 12 11 10 11 11 10 10 10 10 10 10 10 10 11 11 10 10 11 11 11 10 11 11 11 11 12 12 13 12 12 12
12 11 11 12 12 11 12 14 16 16 16 16 16 16 15 14 13 13 12 11 11 11 11 11 11 11 10 11 11 11 12 12 12 12 12 12 12 11 11 11 11 11 12 13 13 13 13 13 13
13 13 13 13 13 13 14 16 17 17 17 17 16 16 16 15 14 13 13 12 12 12 12 12 12 12 11 11 12 12 12 13 13 13 12 12 12 12 12 12 13 13 13 13 13 13 14 14 14
15 15 15 15 15 15 15 17 18 18 18 17 17 17 16 15 15 15 14 14 14 13 13 13 13 12 12 12 12 13 13 13 13 13 12 12 12 12 12 12 13 13 13 12 12 12 13 14 14
Wind_Direction
11 2 359 356 350 3 356 341 326 319 318 309 303 296 295 297 295 287 278 274 269 265 261 260 259 259 259 256 256 259 260 255 249 249 248 249 244 235 233 233 234 238 244 247 245 240 240 238 241
5 354 353 349 352 0 354 345 335 326 315 310 302 298 299 294 292 290 287 284 281 276 268 265 264 264 262 261 259 261 260 256 250 246 247 254 252 244 237 242 242 241 242 248 247 241 238 238 244
0 354 355 355 351 350 344 341 337 328 319 314 306 303 298 292 289 285 285 285 282 278 273 271 270 271 269 266 261 260 260 259 251 247 251 256 260 256 248 244 244 244 245 246 250 251 244 244 250
359 356 359 1 355 351 347 346 340 328 320 312 310 312 303 293 289 284 285 284 280 277 274 275 274 272 271 271 268 263 260 259 253 252 254 257 261 261 258 257 252 253 255 255 255 255 250 251 255
359 3 5 2 357 349 346 348 342 335 330 324 319 321 310 300 296 288 287 286 281 277 275 276 276 274 271 270 269 265 261 259 255 253 255 255 257 260 262 266 261 258 258 259 263 257 250 259 264
6 5 5 4 1 353 344 346 347 344 339 333 327 324 322 313 308 303 295 289 287 283 278 277 279 277 275 271 268 265 259 256 255 254 254 259 259 261 266 271 267 259 262 265 258 255 255 258 261
9 5 6 1 357 349 347 343 340 338 339 340 336 333 330 325 321 315 306 300 291 286 283 284 283 277 275 277 274 267 258 254 254 260 264 263 265 267 269 270 265 257 259 263 261 260 259 260 264
7 4 3 359 355 348 342 339 340 338 342 342 341 340 337 329 325 320 313 304 300 296 288 287 284 276 274 276 275 268 260 259 259 262 265 267 272 277 275 268 265 266 263 262 265 268 269 266 266
359 360 2 0 357 353 345 341 342 341 343 344 343 341 337 333 326 321 318 311 307 310 307 301 292 274 275 276 274 274 264 261 263 265 264 266 272 277 276 269 266 270 265 266 269 270 271 268 267
0 359 1 360 356 353 350 346 342 340 340 342 343 341 335 335 332 328 324 321 318 313 315 310 301 286 281 282 282 276 268 265 266 269 267 264 265 270 275 272 269 269 266 266 268 271 270 270 270
1 1 0 358 358 354 350 349 344 338 337 341 343 342 336 339 340 335 332 328 327 320 316 313 305 299 291 292 295 285 273 268 271 275 269 267 268 269 275 275 272 273 273 270 269 273 273 271 274
356 352 354 356 356 356 355 353 350 345 342 344 345 344 343 344 343 339 336 333 329 323 320 320 317 304 299 300 300 293 283 281 279 279 278 273 271 274 279 279 272 275 275 273 270 270 273 270 270
351 351 352 353 353 357 359 357 357 356 354 351 352 352 350 350 349 349 348 348 345 341 340 336 332 316 299 301 303 299 295 290 286 285 282 277 273 274 278 279 272 270 271 274 271 269 273 272 274
346 349 350 353 353 355 0 1 4 3 4 2 358 357 355 351 347 349 350 347 347 348 345 343 333 326 310 300 301 295 291 290 290 290 288 284 281 277 273 276 274 271 272 275 274 273 274 276 275
337 345 352 357 356 356 358 4 6 3 0 359 356 355 355 354 351 350 348 348 350 350 347 343 338 333 322 306 297 293 290 290 287 288 287 287 285 281 276 277 274 272 273 274 274 273 275 278 278
326 343 348 356 357 356 353 3 4 4 358 357 356 355 355 353 352 350 346 345 347 347 347 347 338 336 326 315 309 300 294 294 293 292 288 284 283 279 280 282 281 278 278 275 273 275 278 279 279
332 344 344 350 356 352 351 355 359 358 357 356 356 357 358 356 353 350 346 342 342 342 344 344 339 336 334 326 319 313 312 304 303 302 299 287 280 280 282 284 289 287 284 282 278 279 280 284 287
334 328 332 338 350 350 351 352 352 356 353 351 352 355 356 355 355 351 346 341 339 340 341 344 342 338 338 329 320 318 322 320 314 311 306 298 290 288 293 291 296 293 293 290 284 282 284 287 289
297 308 315 324 335 339 345 348 348 351 346 345 346 349 350 350 349 347 344 339 334 335 336 341 340 334 331 328 321 319 316 313 308 306 308 306 306 304 303 301 301 300 297 297 289 286 293 295 296
279 290 300 310 322 327 333 337 340 344 346 343 341 339 339 341 339 340 338 336 333 331 331 331 332 333 325 324 320 315 312 311 307 304 302 299 299 298 296 297 302 302 299 297 296 295 297 298 298
271 280 292 302 309 317 321 328 331 335 336 336 334 331 329 329 327 327 328 328 326 323 321 321 324 328 324 316 313 309 309 311 309 307 304 298 301 299 292 295 297 298 301 303 299 300 301 302 304
267 274 283 294 301 310 314 317 323 325 328 327 326 324 323 323 322 320 320 319 318 318 314 312 315 317 319 318 312 307 309 312 309 305 299 294 297 296 292 292 291 293 297 300 299 301 301 304 307
270 277 283 290 299 303 310 312 317 318 321 320 319 317 315 315 315 315 315 315 313 311 308 309 310 308 308 310 313 309 308 308 306 302 299 294 293 296 294 289 288 288 292 296 299 300 298 301 304
266 273 279 287 297 303 310 310 311 313 315 316 315 312 309 308 309 310 310 311 309 307 305 306 306 302 303 307 309 309 310 309 306 304 301 295 294 294 294 292 289 285 287 288 291 293 294 297 297
262 269 280 291 303 302 304 304 304 307 308 309 310 309 307 304 301 303 306 306 305 303 301 306 303 301 302 305 306 306 310 312 309 306 303 299 297 294 293 291 288 284 284 286 289 290 289 291 294
260 263 269 276 284 287 291 297 302 303 303 304 306 307 304 303 299 298 300 303 305 303 301 303 301 299 300 302 301 302 303 307 305 300 296 297 296 295 292 290 288 286 285 284 286 286 282 287 289
263 261 264 269 277 285 288 293 295 299 300 301 303 304 304 302 298 295 296 299 301 301 300 300 301 300 297 298 298 296 299 300 300 297 295 295 295 292 289 289 289 287 287 286 285 284 280 280 284
266 265 264 270 275 277 285 290 294 299 302 301 301 302 300 298 295 293 292 293 295 297 297 295 294 296 295 294 295 296 298 298 297 296 293 292 293 292 290 287 288 290 289 287 287 285 281 279 280
265 263 265 268 273 275 278 282 290 297 300 300 299 298 297 295 293 291 290 289 291 291 289 288 288 289 291 292 295 297 298 299 298 297 294 291 291 291 290 286 285 288 289 289 289 285 280 280 280
269 267 265 267 271 273 278 285 288 294 296 297 297 297 294 291 289 288 287 286 286 286 285 285 285 285 287 290 294 296 297 298 297 295 294 292 291 292 291 288 287 289 289 288 290 290 286 284 283
Height
5877 5876 5876 5876 5876 5875 5874 5873 5873 5872 5872 5871 5871 5871 5870 5871 5872 5874 5871 5870 5870 5870 5870 5870 5870 5870 5870 5870 5871 5871 5871 5871 5871 5871 5871 5872 5872 5872 5873 5873 5874 5874 5875 5875 5876 5877 5877 5878 5878
5877 5877 5877 5876 5875 5874 5874 5873 5872 5872 5872 5871 5871 5870 5870 5870 5870 5870 5869 5869 5869 5869 5869 5869 5869 5869 5869 5869 5869 5869 5870 5870 5870 5870 5870 5871 5871 5871 5872 5872 5873 5873 5873 5874 5875 5876 5876 5877 5877
5877 5877 5877 5876 5874 5874 5874 5873 5872 5872 5871 5871 5870 5870 5870 5870 5870 5869 5869 5869 5868 5868 5868 5868 5868 5868 5868 5868 5868 5868 5868 5868 5869 5869 5869 5870 5870 5870 5871 5871 5872 5872 5872 5873 5874 5875 5875 5876 5876
5878 5878 5877 5876 5874 5874 5873 5872 5872 5872 5871 5870 5870 5870 5869 5869 5869 5868 5868 5868 5867 5867 5867 5867 5867 5867 5867 5867 5867 5867 5867 5867 5867 5868 5868 5869 5869 5870 5870 5871 5871 5871 5872 5872 5873 5874 5874 5875 5876
5878 5877 5877 5875 5874 5874 5873 5872 5872 5871 5871 5870 5870 5869 5868 5868 5868 5867 5867 5867 5866 5866 5866 5866 5866 5866 5865 5865 5865 5865 5865 5866 5866 5867 5867 5868 5868 5869 5869 5870 5870 5870 5871 5871 5872 5872 5873 5874 5875
5878 5878 5877 5875 5875 5874 5873 5873 5872 5871 5871 5870 5869 5869 5868 5868 5867 5867 5866 5865 5865 5865 5865 5865 5865 5865 5864 5864 5864 5864 5864 5865 5865 5866 5866 5867 5867 5868 5868 5869 5869 5869 5869 5870 5871 5871 5872 5873 5873
5879 5878 5876 5875 5875 5874 5874 5873 5872 5871 5871 5870 5869 5869 5868 5867 5866 5866 5865 5864 5864 5864 5864 5864 5864 5864 5863 5863 5863 5863 5863 5864 5864 5865 5865 5866 5866 5867 5867 5867 5868 5868 5869 5869 5870 5870 5871 5871 5872
5878 5878 5877 5876 5875 5875 5874 5873 5872 5871 5870 5870 5869 5868 5867 5867 5866 5865 5864 5863 5863 5863 5863 5862 5862 5862 5862 5862 5862 5862 5862 5863 5863 5864 5864 5865 5865 5866 5866 5866 5867 5867 5868 5868 5868 5869 5869 5870 5870
5878 5879 5877 5876 5876 5875 5874 5873 5872 5871 5870 5869 5869 5868 5867 5866 5865 5864 5864 5863 5862 5862 5862 5861 5861 5861 5861 5861 5861 5861 5861 5862 5862 5862 5863 5864 5864 5865 5865 5865 5866 5866 5867 5867 5867 5867 5868 5868 5869
5879 5878 5877 5877 5876 5875 5874 5873 5872 5871 5870 5869 5868 5868 5866 5866 5865 5864 5863 5862 5862 5861 5861 5861 5860 5860 5860 5860 5860 5860 5860 5861 5861 5861 5862 5863 5863 5864 5864 5864 5864 5865 5865 5865 5866 5866 5866 5867 5867
5879 5878 5877 5877 5876 5875 5874 5873 5872 5871 5870 5869 5868 5867 5866 5865 5864 5863 5862 5862 5861 5861 5860 5860 5860 5859 5859 5859 5859 5859 5860 5860 5860 5861 5861 5861 5862 5862 5863 5863 5863 5863 5863 5864 5864 5864 5865 5865 5866
5879 5878 5878 5877 5876 5875 5874 5873 5872 5871 5870 5869 5868 5867 5866 5865 5864 5863 5862 5861 5861 5860 5860 5859 5859 5859 5858 5859 5858 5859 5859 5859 5859 5860 5860 5860 5860 5861 5861 5861 5861 5862 5862 5862 5863 5863 5863 5864 5864
5879 5878 5878 5877 5876 5875 5874 5873 5872 5871 5870 5869 5868 5867 5866 5865 5864 5863 5862 5861 5860 5860 5859 5859 5858 5858 5858 5858 5858 5858 5858 5858 5858 5858 5859 5859 5859 5860 5860 5860 5860 5860 5861 5861 5861 5862 5862 5862 5862
5879 5878 5878 5877 5876 5875 5874 5873 5872 5871 5870 5869 5868 5867 5865 5865 5864 5863 5862 5861 5860 5860 5859 5858 5858 5858 5857 5857 5857 5857 5857 5857 5857 5858 5858 5858 5858 5858 5858 5859 5859 5859 5859 5859 5860 5860 5860 5860 5861
5878 5878 5878 5877 5876 5875 5875 5874 5872 5871 5870 5869 5868 5867 5866 5865 5863 5862 5862 5861 5860 5859 5859 5858 5858 5857 5857 5857 5857 5857 5857 5857 5857 5857 5857 5857 5857 5857 5857 5857 5858 5858 5858 5858 5858 5858 5859 5859 5859
5878 5878 5878 5877 5876 5875 5876 5874 5873 5871 5870 5869 5868 5867 5866 5865 5863 5862 5861 5861 5860 5859 5859 5858 5857 5857 5857 5856 5856 5856 5856 5856 5856 5856 5856 5856 5856 5856 5856 5856 5856 5856 5857 5857 5857 5857 5857 5857 5857
5878 5878 5877 5877 5876 5875 5875 5874 5873 5871 5870 5869 5868 5866 5866 5865 5863 5862 5861 5860 5860 5859 5859 5858 5857 5857 5856 5856 5856 5856 5855 5855 5855 5855 5855 5855 5855 5855 5855 5855 5855 5855 5855 5855 5856 5856 5856 5856 5856
5878 5877 5877 5876 5876 5875 5874 5873 5872 5871 5870 5869 5868 5867 5865 5864 5863 5862 5861 5860 5860 5859 5858 5858 5857 5857 5856 5856 5855 5855 5855 5855 5854 5854 5854 5854 5854 5854 5854 5854 5854 5854 5854 5854 5854 5854 5854 5854 5854
5877 5877 5876 5876 5876 5875 5874 5873 5872 5871 5870 5869 5867 5866 5865 5864 5863 5862 5861 5860 5860 5859 5858 5858 5857 5857 5856 5856 5855 5855 5855 5854 5854 5854 5853 5853 5853 5853 5853 5853 5853 5853 5853 5853 5853 5853 5853 5853 5853
5877 5877 5876 5876 5875 5874 5874 5873 5872 5871 5870 5868 5867 5866 5865 5864 5863 5862 5861 5860 5859 5859 5858 5857 5856 5856 5856 5855 5855 5854 5854 5854 5853 5853 5852 5852 5852 5852 5852 5852 5852 5852 5852 5852 5852 5851 5851 5851 5851
5876 5876 5876 5875 5874 5874 5873 5873 5871 5870 5869 5868 5867 5865 5864 5863 5862 5862 5861 5860 5859 5858 5857 5856 5856 5855 5855 5854 5854 5853 5853 5852 5852 5852 5852 5851 5851 5851 5851 5851 5851 5851 5851 5850 5850 5850 5850 5849 5849
5874 5874 5874 5874 5873 5873 5872 5871 5870 5869 5868 5867 5866 5865 5864 5862 5861 5860 5860 5859 5858 5857 5856 5856 5855 5854 5854 5853 5853 5852 5852 5851 5851 5851 5850 5850 5850 5850 5850 5849 5849 5849 5849 5849 5849 5848 5848 5848 5848
5873 5873 5873 5873 5872 5872 5871 5870 5870 5867 5867 5866 5865 5864 5863 5861 5860 5859 5858 5857 5856 5856 5855 5854 5854 5853 5852 5852 5852 5851 5850 5850 5849 5849 5849 5849 5848 5848 5848 5848 5847 5847 5847 5847 5847 5847 5846 5846 5846
5871 5872 5872 5871 5871 5871 5870 5869 5868 5867 5865 5864 5863 5862 5861 5860 5859 5858 5857 5856 5855 5854 5854 5853 5852 5852 5851 5851 5850 5850 5849 5848 5848 5847 5847 5847 5847 5847 5846 5846 5846 5845 5845 5845 5845 5845 5845 5845 5844
5870 5870 5870 5869 5869 5870 5869 5868 5867 5865 5864 5863 5862 5860 5859 5858 5857 5856 5855 5855 5854 5853 5852 5851 5851 5850 5850 5849 5849 5848 5847 5847 5846 5846 5845 5845 5845 5844 5844 5844 5844 5843 5843 5843 5843 5843 5843 5842 5842
5867 5868 5869 5868 5868 5868 5867 5866 5866 5864 5862 5861 5859 5858 5857 5856 5855 5854 5853 5853 5852 5851 5850 5850 5849 5848 5848 5847 5847 5846 5846 5845 5844 5844 5843 5843 5842 5842 5842 5841 5841 5841 5841 5840 5840 5840 5840 5840 5840
5865 5865 5866 5866 5866 5866 5865 5864 5862 5861 5860 5859 5857 5856 5854 5853 5852 5852 5851 5850 5850 5849 5848 5848 5847 5846 5846 5845 5844 5844 5843 5842 5842 5841 5841 5840 5839 5839 5839 5838 5838 5838 5837 5837 5837 5837 5837 5837 5837
5863 5863 5863 5863 5863 5863 5863 5862 5860 5858 5857 5856 5854 5853 5851 5850 5849 5849 5848 5848 5847 5847 5846 5845 5845 5844 5843 5843 5842 5841 5840 5840 5839 5838 5837 5837 5836 5836 5835 5835 5835 5834 5834 5834 5834 5834 5834 5834 5834
5860 5861 5860 5860 5860 5860 5860 5861 5857 5856 5854 5853 5851 5850 5848 5847 5847 5846 5845 5845 5845 5844 5843 5843 5842 5841 5841 5840 5839 5838 5837 5836 5835 5835 5834 5833 5833 5832 5832 5832 5831 5831 5831 5830 5830 5830 5830 5830 5830
5857 5857 5857 5858 5857 5857 5856 5858 5854 5852 5851 5850 5848 5846 5845 5844 5843 5843 5842 5842 5841 5841 5840 5839 5839 5838 5838 5837 5836 5835 5834 5833 5832 5831 5830 5830 5829 5829 5828 5828 5828 5828 5827 5827 5827 5826 5826 5826 5826